Tracking 32963 objects as of 22-Jan-2026
HD Live streaming from Space Station
objects crossing your sky now

STARLINK-34043

Track STARLINK-34043 now!
10-day predictions
STARLINK-34043 is classified as:


NORAD ID: 63823
Int'l Code: 2025-092V
Perigee: 489.0 km
Apogee: 491.3 km
Inclination: 43.0 °
Period: 94.3 minutes
Semi major axis: 6861 km
RCS: Unknown
Launch date: May 4, 2025
Source: United States (US)
Launch site: AIR FORCE EASTERN TEST RANGE (AFETR)
Your satellite tracking list
Your tracking list is empty




NASA's NSSDC Master Catalog

Two Line Element Set (TLE):
1 63823U 25092V   26021.43202556  .00040096  00000-0  14582-2 0  9999
2 63823  42.9986  75.3823 0001676 265.5128  94.5532 15.27590022 41432
Source of the keplerian elements: AFSPC